{"data":{"norad_id":39074,"intl_designator":"2013-005C","name":"GLOBALSTAR M094","alt_names":[],"object_type":"PAYLOAD","status":"ACTIVE","operator":null,"country":"GLOB","launch_date":"2013-02-06","launch_site_code":"TYMSC","launch_vehicle":null,"mission":null,"orbit_class":"UNKNOWN","rcs_meters":4.7808,"size_class":null,"mass_kg":null,"dimensions":null,"purposes":["comms"],"wikipedia_slug":null,"has_3d_model":false,"image_url":null,"decayed_at":null,"tle_current":{"epoch":"2026-09-19T22:03:56.307744Z","epoch_age_seconds":64465,"freshness":"FRESH","line1":"1 39074U 13005C   26262.91940171 -.00000101  00000+0  18147-4 0  9999","line2":"2 39074  51.9942 222.3680 0000325  90.7458 269.3446 12.62264786630435","mean_motion":12.62264786,"eccentricity":3.25e-5,"inclination_deg":51.9942,"raan_deg":222.368,"arg_perigee_deg":90.7458,"mean_anomaly_deg":269.3446,"bstar":1.8147e-5,"rev_number":63043,"period_min":114.08066009377,"perigee_km":1413.3571467509,"apogee_km":1413.8636103305,"semimajor_km":7791.7473785407,"source":"CELESTRAK","updated_at":"2026-09-20T09:00:45.041206Z"}}}